Year,Month,Day,Hour,Minute,Value (Times are PST for windspeed in km/hr)
2022,04,06,00,00,23.40
2022,04,06,00,01,23.80
2022,04,06,00,02,23.60
2022,04,06,00,03,25.00
2022,04,06,00,04,23.30
2022,04,06,00,05,23.30
2022,04,06,00,06,26.10
2022,04,06,00,07,25.00
2022,04,06,00,08,24.00
2022,04,06,00,09,22.20
2022,04,06,00,10,22.80
2022,04,06,00,11,25.80
2022,04,06,00,12,26.10
2022,04,06,00,13,26.40
2022,04,06,00,14,25.10
2022,04,06,00,15,26.40
2022,04,06,00,16,24.80
2022,04,06,00,17,24.70
2022,04,06,00,18,23.20
2022,04,06,00,19,23.10
2022,04,06,00,20,22.80
2022,04,06,00,21,24.10
2022,04,06,00,22,23.80
2022,04,06,00,23,22.60
2022,04,06,00,24,23.00
2022,04,06,00,25,24.10
2022,04,06,00,26,24.50
2022,04,06,00,27,23.90
2022,04,06,00,28,23.50
2022,04,06,00,29,23.10
2022,04,06,00,30,21.00
2022,04,06,00,31,21.10
2022,04,06,00,32,21.10
2022,04,06,00,33,20.90
2022,04,06,00,34,20.90
2022,04,06,00,35,20.20
2022,04,06,00,36,21.30
2022,04,06,00,37,20.90
2022,04,06,00,38,22.50
2022,04,06,00,39,22.00
2022,04,06,00,40,21.00
2022,04,06,00,41,20.80
2022,04,06,00,42,20.10
2022,04,06,00,43,21.10
2022,04,06,00,44,19.50
2022,04,06,00,45,19.30
2022,04,06,00,46,19.30
2022,04,06,00,47,19.30
2022,04,06,00,48,19.30
2022,04,06,00,49,19.30
2022,04,06,00,50,19.40
2022,04,06,00,51,19.10
2022,04,06,00,52,19.10
2022,04,06,00,53,19.30
2022,04,06,00,54,19.20
2022,04,06,00,55,18.30
2022,04,06,00,56,19.10
2022,04,06,00,57,18.50
2022,04,06,00,58,17.90
2022,04,06,00,59,18.50
2022,04,06,01,00,18.80
2022,04,06,01,01,18.60
2022,04,06,01,02,20.20
2022,04,06,01,03,19.00
2022,04,06,01,04,18.30
2022,04,06,01,05,19.20
2022,04,06,01,06,19.60
2022,04,06,01,07,18.60
2022,04,06,01,08,19.30
2022,04,06,01,09,18.90
2022,04,06,01,10,18.90
2022,04,06,01,11,18.80
2022,04,06,01,12,19.60
2022,04,06,01,13,19.10
2022,04,06,01,14,19.20
2022,04,06,01,15,19.20
2022,04,06,01,16,20.30
2022,04,06,01,17,20.20
2022,04,06,01,18,19.40
2022,04,06,01,19,19.60
2022,04,06,01,20,20.60
2022,04,06,01,21,18.50
2022,04,06,01,22,17.10
2022,04,06,01,23,19.20
2022,04,06,01,24,19.00
2022,04,06,01,25,19.60
2022,04,06,01,26,19.70
2022,04,06,01,27,19.50
2022,04,06,01,28,19.70
2022,04,06,01,29,19.10
2022,04,06,01,30,18.00
2022,04,06,01,31,19.70
2022,04,06,01,32,18.40
2022,04,06,01,33,17.90
2022,04,06,01,34,19.10
2022,04,06,01,35,18.30
2022,04,06,01,36,17.90
2022,04,06,01,37,17.90
2022,04,06,01,38,16.70
2022,04,06,01,39,17.70
2022,04,06,01,40,16.60
2022,04,06,01,41,16.80
2022,04,06,01,42,16.50
2022,04,06,01,43,16.60
2022,04,06,01,44,17.00
2022,04,06,01,45,17.00
2022,04,06,01,46,16.80
2022,04,06,01,47,17.40
2022,04,06,01,48,17.60
2022,04,06,01,49,17.20
2022,04,06,01,50,17.50
2022,04,06,01,51,18.20
2022,04,06,01,52,17.70
2022,04,06,01,53,17.60
2022,04,06,01,54,17.00
2022,04,06,01,55,16.00
2022,04,06,01,56,17.00
2022,04,06,01,57,16.10
2022,04,06,01,58,15.40
2022,04,06,01,59,16.10
2022,04,06,02,00,15.90
2022,04,06,02,01,15.90
2022,04,06,02,02,15.80
2022,04,06,02,03,15.60
2022,04,06,02,04,15.40
2022,04,06,02,05,13.90
2022,04,06,02,06,15.10
2022,04,06,02,07,15.70
2022,04,06,02,08,17.20
2022,04,06,02,09,16.00
2022,04,06,02,10,14.60
2022,04,06,02,11,13.20
2022,04,06,02,12,13.40
2022,04,06,02,13,13.80
2022,04,06,02,14,13.60
2022,04,06,02,15,14.40
2022,04,06,02,16,14.30
2022,04,06,02,17,11.70
2022,04,06,02,18,11.30
2022,04,06,02,19,12.20
2022,04,06,02,20,11.70
2022,04,06,02,21,11.10
2022,04,06,02,22,11.50
2022,04,06,02,23,11.90
2022,04,06,02,24,12.10
2022,04,06,02,25,10.20
2022,04,06,02,26,9.30
2022,04,06,02,27,10.30
2022,04,06,02,28,12.30
2022,04,06,02,29,12.30
2022,04,06,02,30,10.90
2022,04,06,02,31,12.60
2022,04,06,02,32,12.70
2022,04,06,02,33,12.70
2022,04,06,02,34,11.80
2022,04,06,02,35,11.70
2022,04,06,02,36,11.20
2022,04,06,02,37,10.10
2022,04,06,02,38,9.70
2022,04,06,02,39,9.30
2022,04,06,02,40,9.90
2022,04,06,02,41,10.10
2022,04,06,02,42,10.90
2022,04,06,02,43,10.50
2022,04,06,02,44,10.80
2022,04,06,02,45,10.40
2022,04,06,02,46,9.50
2022,04,06,02,47,8.10
2022,04,06,02,48,8.20
2022,04,06,02,49,7.70
2022,04,06,02,50,7.80
2022,04,06,02,51,8.50
2022,04,06,02,52,7.80
2022,04,06,02,53,8.00
2022,04,06,02,54,6.70
2022,04,06,02,55,6.20
2022,04,06,02,56,4.30
2022,04,06,02,57,0.80
2022,04,06,02,58,1.50
2022,04,06,02,59,0.20
2022,04,06,03,00,0.10
2022,04,06,03,01,1.90
2022,04,06,03,02,1.30
2022,04,06,03,03,1.80
2022,04,06,03,04,1.00
2022,04,06,03,05,0.30
2022,04,06,03,06,3.20
2022,04,06,03,07,5.10
2022,04,06,03,08,5.20
2022,04,06,03,09,4.50
2022,04,06,03,10,3.20
2022,04,06,03,11,3.90
2022,04,06,03,12,2.10
2022,04,06,03,13,2.70
2022,04,06,03,14,2.00
2022,04,06,03,15,0.00
2022,04,06,03,16,0.00
2022,04,06,03,17,2.40
2022,04,06,03,18,4.00
2022,04,06,03,19,3.30
2022,04,06,03,20,3.10
2022,04,06,03,21,1.90
2022,04,06,03,22,2.70
2022,04,06,03,23,1.30
2022,04,06,03,24,0.30
2022,04,06,03,25,0.00
2022,04,06,03,26,0.00
2022,04,06,03,27,0.00
2022,04,06,03,28,0.00
2022,04,06,03,29,0.00
2022,04,06,03,30,0.00
2022,04,06,03,31,0.00
2022,04,06,03,32,0.00
2022,04,06,03,33,0.00
2022,04,06,03,34,0.00
2022,04,06,03,35,1.40
2022,04,06,03,36,3.10
2022,04,06,03,37,3.40
2022,04,06,03,38,3.70
2022,04,06,03,39,3.80
2022,04,06,03,40,3.40
2022,04,06,03,41,3.40
2022,04,06,03,42,3.20
2022,04,06,03,43,3.70
2022,04,06,03,44,3.70
2022,04,06,03,45,3.50
2022,04,06,03,46,3.40
2022,04,06,03,47,3.80
2022,04,06,03,48,4.30
2022,04,06,03,49,3.90
2022,04,06,03,50,4.50
2022,04,06,03,51,4.70
2022,04,06,03,52,5.50
2022,04,06,03,53,5.40
2022,04,06,03,54,5.20
2022,04,06,03,55,4.90
2022,04,06,03,56,5.10
2022,04,06,03,57,4.70
2022,04,06,03,58,4.30
2022,04,06,03,59,5.20
2022,04,06,04,00,4.70
2022,04,06,04,01,4.60
2022,04,06,04,02,4.40
2022,04,06,04,03,4.70
2022,04,06,04,04,4.60
2022,04,06,04,05,4.80
2022,04,06,04,06,4.80
2022,04,06,04,07,4.80
2022,04,06,04,08,4.60
2022,04,06,04,09,4.60
2022,04,06,04,10,4.50
2022,04,06,04,11,4.40
2022,04,06,04,12,4.40
2022,04,06,04,13,4.40
2022,04,06,04,14,4.40
2022,04,06,04,15,4.10
2022,04,06,04,16,3.70
2022,04,06,04,17,4.10
2022,04,06,04,18,4.70
2022,04,06,04,19,4.80
2022,04,06,04,20,4.00
2022,04,06,04,21,3.40
2022,04,06,04,22,3.20
2022,04,06,04,23,3.70
2022,04,06,04,24,3.50
2022,04,06,04,25,4.10
2022,04,06,04,26,4.30
2022,04,06,04,27,4.60
2022,04,06,04,28,4.80
2022,04,06,04,29,5.50
2022,04,06,04,30,5.40
2022,04,06,04,31,5.10
2022,04,06,04,32,5.20
2022,04,06,04,33,5.50
2022,04,06,04,34,5.90
2022,04,06,04,35,4.50
2022,04,06,04,36,3.90
2022,04,06,04,37,4.50
2022,04,06,04,38,4.10
2022,04,06,04,39,4.10
2022,04,06,04,40,4.50
2022,04,06,04,41,3.70
2022,04,06,04,42,3.20
2022,04,06,04,43,3.00
2022,04,06,04,44,2.60
2022,04,06,04,45,2.40
2022,04,06,04,46,2.40
2022,04,06,04,47,2.70
2022,04,06,04,48,3.60
2022,04,06,04,49,3.70
2022,04,06,04,50,3.80
2022,04,06,04,51,4.30
2022,04,06,04,52,4.70
2022,04,06,04,53,4.50
2022,04,06,04,54,3.80
2022,04,06,04,55,3.30
2022,04,06,04,56,2.60
2022,04,06,04,57,2.10
2022,04,06,04,58,2.50
2022,04,06,04,59,4.80
2022,04,06,05,00,5.40
2022,04,06,05,01,5.50
2022,04,06,05,02,5.10
2022,04,06,05,03,4.00
2022,04,06,05,04,4.00
2022,04,06,05,05,4.00
2022,04,06,05,06,5.00
2022,04,06,05,07,4.70
2022,04,06,05,08,4.90
2022,04,06,05,09,4.80
2022,04,06,05,10,5.70
2022,04,06,05,11,6.50
2022,04,06,05,12,6.90
2022,04,06,05,13,6.10
2022,04,06,05,14,5.70
2022,04,06,05,15,6.00
2022,04,06,05,16,5.90
2022,04,06,05,17,6.40
2022,04,06,05,18,7.00
2022,04,06,05,19,7.30
2022,04,06,05,20,7.10
2022,04,06,05,21,8.10
2022,04,06,05,22,7.80
2022,04,06,05,23,7.90
2022,04,06,05,24,8.10
2022,04,06,05,25,7.80
2022,04,06,05,26,7.90
2022,04,06,05,27,7.20
2022,04,06,05,28,7.40
2022,04,06,05,29,7.60
2022,04,06,05,30,8.40
2022,04,06,05,31,8.10
2022,04,06,05,32,7.50
2022,04,06,05,33,7.50
2022,04,06,05,34,8.10
2022,04,06,05,35,8.30
2022,04,06,05,36,8.80
2022,04,06,05,37,9.20
2022,04,06,05,38,9.10
2022,04,06,05,39,8.40
2022,04,06,05,40,9.70
2022,04,06,05,41,9.30
2022,04,06,05,42,8.50
2022,04,06,05,43,9.00
2022,04,06,05,44,10.20
2022,04,06,05,45,10.60
2022,04,06,05,46,9.60
2022,04,06,05,47,10.70
2022,04,06,05,48,10.10
2022,04,06,05,49,9.30
2022,04,06,05,50,11.00
2022,04,06,05,51,12.00
2022,04,06,05,52,10.90
2022,04,06,05,53,11.00
2022,04,06,05,54,11.00
2022,04,06,05,55,10.90
2022,04,06,05,56,10.50
2022,04,06,05,57,11.30
2022,04,06,05,58,11.70
2022,04,06,05,59,11.50
2022,04,06,06,00,11.00
2022,04,06,06,01,11.20
2022,04,06,06,02,10.90
2022,04,06,06,03,10.50
2022,04,06,06,04,9.70
2022,04,06,06,05,10.00
2022,04,06,06,06,10.20
2022,04,06,06,07,10.10
2022,04,06,06,08,9.70
2022,04,06,06,09,8.50
2022,04,06,06,10,8.10
2022,04,06,06,11,8.50
2022,04,06,06,12,8.00
2022,04,06,06,13,9.00
2022,04,06,06,14,8.10
2022,04,06,06,15,10.60
2022,04,06,06,16,10.80
2022,04,06,06,17,10.90
2022,04,06,06,18,12.60
2022,04,06,06,19,12.60
2022,04,06,06,20,11.80
2022,04,06,06,21,12.30
2022,04,06,06,22,12.10
2022,04,06,06,23,13.00
2022,04,06,06,24,13.00
2022,04,06,06,25,13.40
2022,04,06,06,26,11.10
2022,04,06,06,27,13.00
2022,04,06,06,28,13.10
2022,04,06,06,29,13.20
2022,04,06,06,30,14.40
2022,04,06,06,31,13.90
2022,04,06,06,32,15.40
2022,04,06,06,33,14.60
2022,04,06,06,34,13.60
2022,04,06,06,35,14.90
2022,04,06,06,36,13.90
2022,04,06,06,37,13.90
2022,04,06,06,38,13.90
2022,04,06,06,39,12.90
2022,04,06,06,40,14.30
2022,04,06,06,41,12.90
2022,04,06,06,42,12.00
2022,04,06,06,43,8.90
2022,04,06,06,44,5.80
2022,04,06,06,45,6.60
2022,04,06,06,46,12.30
2022,04,06,06,47,11.60
2022,04,06,06,48,11.90
2022,04,06,06,49,11.30
2022,04,06,06,50,12.90
2022,04,06,06,51,12.80
2022,04,06,06,52,12.00
2022,04,06,06,53,13.60
2022,04,06,06,54,13.50
2022,04,06,06,55,13.40
2022,04,06,06,56,14.60
2022,04,06,06,57,14.10
2022,04,06,06,58,13.30
2022,04,06,06,59,11.80
2022,04,06,07,00,12.70
2022,04,06,07,01,13.10
2022,04,06,07,02,11.70
2022,04,06,07,03,11.70
2022,04,06,07,04,12.40
2022,04,06,07,05,13.10
2022,04,06,07,06,13.30
2022,04,06,07,07,11.80
2022,04,06,07,08,12.20
2022,04,06,07,09,12.00
2022,04,06,07,10,13.20
2022,04,06,07,11,13.30
2022,04,06,07,12,13.10
2022,04,06,07,13,13.90
2022,04,06,07,14,13.40
2022,04,06,07,15,14.60
2022,04,06,07,16,13.10
2022,04,06,07,17,12.60
2022,04,06,07,18,14.60
2022,04,06,07,19,14.80
2022,04,06,07,20,14.20
2022,04,06,07,21,14.60
2022,04,06,07,22,15.30
2022,04,06,07,23,15.30
2022,04,06,07,24,14.70
2022,04,06,07,25,15.80
2022,04,06,07,26,15.30
2022,04,06,07,27,13.80
2022,04,06,07,28,15.00
2022,04,06,07,29,14.40
2022,04,06,07,30,14.90
2022,04,06,07,31,15.80
2022,04,06,07,32,15.40
2022,04,06,07,33,15.00
2022,04,06,07,34,16.10
2022,04,06,07,35,14.60
2022,04,06,07,36,14.80
2022,04,06,07,37,14.80
2022,04,06,07,38,16.20
2022,04,06,07,39,15.30
2022,04,06,07,40,15.10
2022,04,06,07,41,14.90
2022,04,06,07,42,14.10
2022,04,06,07,43,13.40
2022,04,06,07,44,13.10
2022,04,06,07,45,14.20
2022,04,06,07,46,14.50
2022,04,06,07,47,13.90
2022,04,06,07,48,14.60
2022,04,06,07,49,14.60
2022,04,06,07,50,16.40
2022,04,06,07,51,18.50
2022,04,06,07,52,19.50
2022,04,06,07,53,19.00
2022,04,06,07,54,18.60
2022,04,06,07,55,18.70
2022,04,06,07,56,18.50
2022,04,06,07,57,17.90
2022,04,06,07,58,17.30
2022,04,06,07,59,18.30
2022,04,06,08,00,16.70
2022,04,06,08,01,14.00
2022,04,06,08,02,14.50
2022,04,06,08,03,14.60
2022,04,06,08,04,15.00
2022,04,06,08,05,15.80
2022,04,06,08,06,15.00
2022,04,06,08,07,15.90
2022,04,06,08,08,17.80
2022,04,06,08,09,18.90
2022,04,06,08,10,18.10
2022,04,06,08,11,18.90
2022,04,06,08,12,18.50
2022,04,06,08,13,17.30
2022,04,06,08,14,17.60
2022,04,06,08,15,17.10
2022,04,06,08,16,17.90
2022,04,06,08,17,17.90
2022,04,06,08,18,17.00
2022,04,06,08,19,18.70
2022,04,06,08,20,17.50
2022,04,06,08,21,17.30
2022,04,06,08,22,17.90
2022,04,06,08,23,17.60
2022,04,06,08,24,17.80
2022,04,06,08,25,17.90
2022,04,06,08,26,17.90
2022,04,06,08,27,18.20
2022,04,06,08,28,19.90
2022,04,06,08,29,19.20
2022,04,06,08,30,19.50
2022,04,06,08,31,19.80
2022,04,06,08,32,19.20
2022,04,06,08,33,19.30
2022,04,06,08,34,19.20
2022,04,06,08,35,20.80
2022,04,06,08,36,20.10
2022,04,06,08,37,20.40
2022,04,06,08,38,20.50
2022,04,06,08,39,20.50
2022,04,06,08,40,19.80
2022,04,06,08,41,20.60
2022,04,06,08,42,21.10
2022,04,06,08,43,19.70
2022,04,06,08,44,19.10
2022,04,06,08,45,19.50
2022,04,06,08,46,18.80
2022,04,06,08,47,18.70
2022,04,06,08,48,18.40
2022,04,06,08,49,17.80
2022,04,06,08,50,17.60
2022,04,06,08,51,17.20
2022,04,06,08,52,18.50
2022,04,06,08,53,19.40
2022,04,06,08,54,17.70
2022,04,06,08,55,17.70
2022,04,06,08,56,16.70
2022,04,06,08,57,17.90
2022,04,06,08,58,18.80
2022,04,06,08,59,16.80
2022,04,06,09,00,17.80
2022,04,06,09,01,17.00
2022,04,06,09,02,18.00
2022,04,06,09,03,16.90
2022,04,06,09,04,18.20
2022,04,06,09,05,17.20
2022,04,06,09,06,18.70
2022,04,06,09,07,19.60
2022,04,06,09,08,18.90
2022,04,06,09,09,19.30
2022,04,06,09,10,17.90
2022,04,06,09,11,18.60
2022,04,06,09,12,18.60
2022,04,06,09,13,18.50
2022,04,06,09,14,20.40
2022,04,06,09,15,19.50
2022,04,06,09,16,20.90
2022,04,06,09,17,20.60
2022,04,06,09,18,21.90
2022,04,06,09,19,20.80
2022,04,06,09,20,19.60
2022,04,06,09,21,20.80
2022,04,06,09,22,19.60
2022,04,06,09,23,21.10
2022,04,06,09,24,19.70
2022,04,06,09,25,19.90
2022,04,06,09,26,19.20
2022,04,06,09,27,19.30
2022,04,06,09,28,19.10
2022,04,06,09,29,19.40
2022,04,06,09,30,19.90
2022,04,06,09,31,19.00
2022,04,06,09,32,18.70
2022,04,06,09,33,17.00
2022,04,06,09,34,17.50
2022,04,06,09,35,16.30
2022,04,06,09,36,17.50
2022,04,06,09,37,17.90
2022,04,06,09,38,16.20
2022,04,06,09,39,16.20
2022,04,06,09,40,17.20
2022,04,06,09,41,16.20
2022,04,06,09,42,16.80
2022,04,06,09,43,16.70
2022,04,06,09,44,17.40
2022,04,06,09,45,17.50
2022,04,06,09,46,17.50
2022,04,06,09,47,17.60
2022,04,06,09,48,16.20
2022,04,06,09,49,17.90
2022,04,06,09,50,17.70
2022,04,06,09,51,17.30
2022,04,06,09,52,17.70
2022,04,06,09,53,17.50
2022,04,06,09,54,19.30
2022,04,06,09,55,19.80
2022,04,06,09,56,19.80
2022,04,06,09,57,20.50
2022,04,06,09,58,19.10
2022,04,06,09,59,20.30
2022,04,06,10,00,21.40
2022,04,06,10,01,20.70
2022,04,06,10,02,21.40
2022,04,06,10,03,20.80
2022,04,06,10,04,20.80
2022,04,06,10,05,22.50
2022,04,06,10,06,21.00
2022,04,06,10,07,21.80
2022,04,06,10,08,21.70
2022,04,06,10,09,22.30
2022,04,06,10,10,22.80
2022,04,06,10,11,22.50
2022,04,06,10,12,22.20
2022,04,06,10,13,21.50
2022,04,06,10,14,21.40
2022,04,06,10,15,20.00
2022,04,06,10,16,21.00
2022,04,06,10,17,22.50
2022,04,06,10,18,25.10
2022,04,06,10,19,21.70
2022,04,06,10,20,21.60
2022,04,06,10,21,22.30
2022,04,06,10,22,23.40
2022,04,06,10,23,23.80
2022,04,06,10,24,23.70
2022,04,06,10,25,22.50
2022,04,06,10,26,24.10
2022,04,06,10,27,22.90
2022,04,06,10,28,22.30
2022,04,06,10,29,22.00
2022,04,06,10,30,22.20
2022,04,06,10,31,21.30
2022,04,06,10,32,23.30
2022,04,06,10,33,24.60
2022,04,06,10,34,23.90
2022,04,06,10,35,24.40
2022,04,06,10,36,23.60
2022,04,06,10,37,21.70
2022,04,06,10,38,25.00
2022,04,06,10,39,24.00
2022,04,06,10,40,22.50
2022,04,06,10,41,22.20
2022,04,06,10,42,22.10
2022,04,06,10,43,24.00
2022,04,06,10,44,21.40
2022,04,06,10,45,22.00
2022,04,06,10,46,21.10
2022,04,06,10,47,19.80
2022,04,06,10,48,23.30
2022,04,06,10,49,23.80
2022,04,06,10,50,25.10
2022,04,06,10,51,24.20
2022,04,06,10,52,24.30
2022,04,06,10,53,23.70
2022,04,06,10,54,24.40
2022,04,06,10,55,23.60
2022,04,06,10,56,24.80
2022,04,06,10,57,25.90
2022,04,06,10,58,23.70
2022,04,06,10,59,24.20
2022,04,06,11,00,25.80
2022,04,06,11,01,28.10
2022,04,06,11,02,27.80
2022,04,06,11,03,28.50
2022,04,06,11,04,27.60
2022,04,06,11,05,26.50
2022,04,06,11,06,25.20
2022,04,06,11,07,24.30
2022,04,06,11,08,25.60
2022,04,06,11,09,26.40
2022,04,06,11,10,26.70
2022,04,06,11,11,25.40
2022,04,06,11,12,24.40
2022,04,06,11,13,23.90
2022,04,06,11,14,23.30
2022,04,06,11,15,25.60
2022,04,06,11,16,22.40
2022,04,06,11,17,21.80
2022,04,06,11,18,23.50
2022,04,06,11,19,21.80
2022,04,06,11,20,23.10
2022,04,06,11,21,22.90
2022,04,06,11,22,20.90
2022,04,06,11,23,22.30
2022,04,06,11,24,24.30
2022,04,06,11,25,24.10
2022,04,06,11,26,23.80
2022,04,06,11,27,24.30
2022,04,06,11,28,24.40
2022,04,06,11,29,22.70
2022,04,06,11,30,22.20
2022,04,06,11,31,23.10
2022,04,06,11,32,22.20
2022,04,06,11,33,22.50
2022,04,06,11,34,21.60
2022,04,06,11,35,22.50
2022,04,06,11,36,20.40
2022,04,06,11,37,18.90
2022,04,06,11,38,17.40
2022,04,06,11,39,16.70
2022,04,06,11,40,16.60
2022,04,06,11,41,16.70
2022,04,06,11,42,15.90
2022,04,06,11,43,15.80
2022,04,06,11,44,15.80
2022,04,06,11,45,15.00
2022,04,06,11,46,17.00
2022,04,06,11,47,17.00
2022,04,06,11,48,15.90
2022,04,06,11,49,15.00
2022,04,06,11,50,14.60
2022,04,06,11,51,14.90
2022,04,06,11,52,13.30
2022,04,06,11,53,13.30
2022,04,06,11,54,13.70
2022,04,06,11,55,12.70
2022,04,06,11,56,12.40
2022,04,06,11,57,12.60
2022,04,06,11,58,13.20
2022,04,06,11,59,13.40
2022,04,06,12,00,13.60
2022,04,06,12,01,14.10
2022,04,06,12,02,15.30
2022,04,06,12,03,15.10
2022,04,06,12,04,13.40
2022,04,06,12,05,13.00
2022,04,06,12,06,13.70
2022,04,06,12,07,13.80
2022,04,06,12,08,13.70
2022,04,06,12,09,13.20
2022,04,06,12,10,13.50
2022,04,06,12,11,13.00
2022,04,06,12,12,11.10
2022,04,06,12,13,12.70
2022,04,06,12,14,10.30
2022,04,06,12,15,8.10
2022,04,06,12,16,6.40
2022,04,06,12,17,8.80
2022,04,06,12,18,10.30
2022,04,06,12,19,9.90
2022,04,06,12,20,9.00
2022,04,06,12,21,10.20
2022,04,06,12,22,10.10
2022,04,06,12,23,9.40
2022,04,06,12,24,8.60
2022,04,06,12,25,9.50
2022,04,06,12,26,9.80
2022,04,06,12,27,8.60
2022,04,06,12,28,9.10
2022,04,06,12,29,8.40
2022,04,06,12,30,8.00
2022,04,06,12,31,8.10
2022,04,06,12,32,8.10
2022,04,06,12,33,8.10
2022,04,06,12,34,9.00
2022,04,06,12,35,9.00
2022,04,06,12,36,10.00
2022,04,06,12,37,10.30
2022,04,06,12,38,10.80
2022,04,06,12,39,10.60
2022,04,06,12,40,9.90
2022,04,06,12,41,10.00
2022,04,06,12,42,9.20
2022,04,06,12,43,9.50
2022,04,06,12,44,9.80
2022,04,06,12,45,10.30
2022,04,06,12,46,10.00
2022,04,06,12,47,11.20
2022,04,06,12,48,11.00
2022,04,06,12,49,10.70
2022,04,06,12,50,10.10
2022,04,06,12,51,10.90
2022,04,06,12,52,11.60
2022,04,06,12,53,11.50
2022,04,06,12,54,11.70
2022,04,06,12,55,11.60
2022,04,06,12,56,11.70
2022,04,06,12,57,11.80
2022,04,06,12,58,11.50
2022,04,06,12,59,11.30
2022,04,06,13,00,11.50
2022,04,06,13,01,11.80
2022,04,06,13,02,10.80
2022,04,06,13,03,11.30
2022,04,06,13,04,10.80
2022,04,06,13,05,11.30
2022,04,06,13,06,11.10
2022,04,06,13,07,10.60
2022,04,06,13,08,10.80
2022,04,06,13,09,10.10
2022,04,06,13,10,10.10
2022,04,06,13,11,9.90
2022,04,06,13,12,9.00
2022,04,06,13,13,9.40
2022,04,06,13,14,9.70
2022,04,06,13,15,9.60
2022,04,06,13,16,9.30
2022,04,06,13,17,9.10
2022,04,06,13,18,9.60
2022,04,06,13,19,8.90
2022,04,06,13,20,9.30
2022,04,06,13,21,9.70
2022,04,06,13,22,9.60
2022,04,06,13,23,9.70
2022,04,06,13,24,9.50
2022,04,06,13,25,9.00
2022,04,06,13,26,8.70
2022,04,06,13,27,9.10
2022,04,06,13,28,8.70
2022,04,06,13,29,9.00
2022,04,06,13,30,8.30
2022,04,06,13,31,9.00
2022,04,06,13,32,10.80
2022,04,06,13,33,10.00
2022,04,06,13,34,10.80
2022,04,06,13,35,10.00
2022,04,06,13,36,12.20
2022,04,06,13,37,12.20
2022,04,06,13,38,12.00
2022,04,06,13,39,13.00
2022,04,06,13,40,13.70
2022,04,06,13,41,13.80
2022,04,06,13,42,13.90
2022,04,06,13,43,14.00
2022,04,06,13,44,12.80
2022,04,06,13,45,12.70
2022,04,06,13,46,12.70
2022,04,06,13,47,13.10
2022,04,06,13,48,12.90
2022,04,06,13,49,13.50
2022,04,06,13,50,14.60
2022,04,06,13,51,14.00
2022,04,06,13,52,12.70
2022,04,06,13,53,13.20
2022,04,06,13,54,12.70
2022,04,06,13,55,13.10
2022,04,06,13,56,13.50
2022,04,06,13,57,14.20
2022,04,06,13,58,13.10
2022,04,06,13,59,11.70
2022,04,06,14,00,10.30
2022,04,06,14,01,12.50
2022,04,06,14,02,13.20
2022,04,06,14,03,12.50
2022,04,06,14,04,13.20
2022,04,06,14,05,13.10
2022,04,06,14,06,12.30
2022,04,06,14,07,12.50
2022,04,06,14,08,13.20
2022,04,06,14,09,13.40
2022,04,06,14,10,11.90
2022,04,06,14,11,11.60
2022,04,06,14,12,13.70
2022,04,06,14,13,13.60
2022,04,06,14,14,13.80
2022,04,06,14,15,12.90
2022,04,06,14,16,12.20
2022,04,06,14,17,13.00
2022,04,06,14,18,13.20
2022,04,06,14,19,12.40
2022,04,06,14,20,11.80
2022,04,06,14,21,12.20
2022,04,06,14,22,12.00
2022,04,06,14,23,11.80
2022,04,06,14,24,12.00
2022,04,06,14,25,11.80
2022,04,06,14,26,12.10
2022,04,06,14,27,12.20
2022,04,06,14,28,13.10
2022,04,06,14,29,15.20
2022,04,06,14,30,13.60
2022,04,06,14,31,12.60
2022,04,06,14,32,12.50
2022,04,06,14,33,14.30
2022,04,06,14,34,15.90
2022,04,06,14,35,13.20
2022,04,06,14,36,13.10
2022,04,06,14,37,14.90
2022,04,06,14,38,14.50
2022,04,06,14,39,13.40
2022,04,06,14,40,12.30
2022,04,06,14,41,13.90
2022,04,06,14,42,14.50
2022,04,06,14,43,14.50
2022,04,06,14,44,14.50
2022,04,06,14,45,14.50
2022,04,06,14,46,14.50
2022,04,06,14,47,14.50
2022,04,06,14,48,13.60
2022,04,06,14,49,14.60
2022,04,06,14,50,14.60
2022,04,06,14,51,15.10
2022,04,06,14,52,17.10
2022,04,06,14,53,17.00
2022,04,06,14,54,16.40
2022,04,06,14,55,16.90
2022,04,06,14,56,16.70
2022,04,06,14,57,17.30
2022,04,06,14,58,17.50
2022,04,06,14,59,18.90
2022,04,06,15,00,19.10
2022,04,06,15,01,19.20
2022,04,06,15,02,18.80
2022,04,06,15,03,18.60
2022,04,06,15,04,19.60
2022,04,06,15,05,18.30
2022,04,06,15,06,20.00
2022,04,06,15,07,19.60
2022,04,06,15,08,18.00
2022,04,06,15,09,17.20
2022,04,06,15,10,17.10
2022,04,06,15,11,17.80
2022,04,06,15,12,17.60
2022,04,06,15,13,17.90
2022,04,06,15,14,17.50
2022,04,06,15,15,16.90
2022,04,06,15,16,16.20
2022,04,06,15,17,15.90
2022,04,06,15,18,16.60
2022,04,06,15,19,14.80
2022,04,06,15,20,15.20
2022,04,06,15,21,14.70
2022,04,06,15,22,15.50
2022,04,06,15,23,15.20
2022,04,06,15,24,15.90
2022,04,06,15,25,16.30
2022,04,06,15,26,17.00
2022,04,06,15,27,15.80
2022,04,06,15,28,15.90
2022,04,06,15,29,15.00
2022,04,06,15,30,14.80
2022,04,06,15,31,15.40
2022,04,06,15,32,14.10
2022,04,06,15,33,14.70
2022,04,06,15,34,14.90
2022,04,06,15,35,16.80
2022,04,06,15,36,16.30
2022,04,06,15,37,17.00
2022,04,06,15,38,15.70
2022,04,06,15,39,18.10
2022,04,06,15,40,17.60
2022,04,06,15,41,17.00
2022,04,06,15,42,16.90
2022,04,06,15,43,16.30
2022,04,06,15,44,16.20
2022,04,06,15,45,16.00
2022,04,06,15,46,15.70
2022,04,06,15,47,14.80
2022,04,06,15,48,15.10
2022,04,06,15,49,14.70
2022,04,06,15,50,15.00
2022,04,06,15,51,15.50
2022,04,06,15,52,14.70
2022,04,06,15,53,14.60
2022,04,06,15,54,15.10
2022,04,06,15,55,13.40
2022,04,06,15,56,15.10
2022,04,06,15,57,14.80
2022,04,06,15,58,15.40
2022,04,06,15,59,15.90
2022,04,06,16,00,15.90
2022,04,06,16,01,15.20
2022,04,06,16,02,15.00
2022,04,06,16,03,13.80
2022,04,06,16,04,14.10
2022,04,06,16,05,15.60
2022,04,06,16,06,16.80
2022,04,06,16,07,15.60
2022,04,06,16,08,15.10
2022,04,06,16,09,16.10
2022,04,06,16,10,16.20
2022,04,06,16,11,15.60
2022,04,06,16,12,15.00
2022,04,06,16,13,14.90
2022,04,06,16,14,15.50
2022,04,06,16,15,16.40
2022,04,06,16,16,15.80
2022,04,06,16,17,15.40
2022,04,06,16,18,14.90
2022,04,06,16,19,15.00
2022,04,06,16,20,15.00
2022,04,06,16,21,14.90
2022,04,06,16,22,14.40
2022,04,06,16,23,16.40
2022,04,06,16,24,16.60
2022,04,06,16,25,16.10
2022,04,06,16,26,15.10
2022,04,06,16,27,14.70
2022,04,06,16,28,14.90
2022,04,06,16,29,14.20
2022,04,06,16,30,12.70
2022,04,06,16,31,13.30
2022,04,06,16,32,11.90
2022,04,06,16,33,12.40
2022,04,06,16,34,13.00
2022,04,06,16,35,12.20
2022,04,06,16,36,13.20
2022,04,06,16,37,13.00
2022,04,06,16,38,13.60
2022,04,06,16,39,14.50
2022,04,06,16,40,14.90
2022,04,06,16,41,15.40
2022,04,06,16,42,15.20
2022,04,06,16,43,16.50
2022,04,06,16,44,16.70
2022,04,06,16,45,17.60
2022,04,06,16,46,18.20
2022,04,06,16,47,16.90
2022,04,06,16,48,18.00
2022,04,06,16,49,17.30
2022,04,06,16,50,17.90
2022,04,06,16,51,16.90
2022,04,06,16,52,17.70
2022,04,06,16,53,16.90
2022,04,06,16,54,15.40
2022,04,06,16,56,15.60
2022,04,06,16,57,15.80
2022,04,06,16,58,15.00
2022,04,06,16,59,16.30
2022,04,06,17,00,17.10
2022,04,06,17,01,16.70
2022,04,06,17,02,17.10
2022,04,06,17,03,19.00
2022,04,06,17,04,17.80
2022,04,06,17,05,17.50
2022,04,06,17,06,15.30
2022,04,06,17,07,16.30
2022,04,06,17,08,15.20
2022,04,06,17,09,16.00
2022,04,06,17,10,16.70
2022,04,06,17,11,17.30
2022,04,06,17,12,17.60
2022,04,06,17,13,16.40
2022,04,06,17,14,16.20
2022,04,06,17,15,16.70
2022,04,06,17,16,15.60
2022,04,06,17,17,15.40
2022,04,06,17,18,15.50
2022,04,06,17,19,15.30
2022,04,06,17,20,15.40
2022,04,06,17,21,16.40
2022,04,06,17,22,15.50
2022,04,06,17,23,14.90
2022,04,06,17,24,15.30
2022,04,06,17,25,15.10
2022,04,06,17,26,15.00
2022,04,06,17,27,16.60
2022,04,06,17,28,17.20
2022,04,06,17,29,17.50
2022,04,06,17,30,17.10